CHINASAT 16 (SJ-13)

Last updated on Sun Jun 21 2026 00:03:07 GMT+0000 (Coordinated Universal Time)

1 42662U 17018A 26171.17614287 -.00000357 00000+0 00000+0 0 9994 2 42662 0.1035 89.8840 0004097 134.5735 217.8376 1.00271663 33776
UTC large
Height (km)
Speed (km/s)
/
Latitude / Longitude
Inclination (degrees)
Orbital Period (minutes)
Azimuth
Elevation
Range (km)
Doppler Factor

Next 0 passes for location: London (51.5072 / 0.1276)

No passes found over London.
CHINASAT 16 (SJ-13)